Location: Unspecified
(0.0000°N, 0.0000°E)
Time: 09:40:27
(UTC+00:00)

Hubble Space Telescope - Pass Details

Date: 16 January 2018
Orbit: 537 x 541 km, 28.5° (Epoch: 18 April)

Event Time Altitude Azimuth Distance (km) Brightness Sun altitude
Rises 20:16:01 0° 273° (W) 2,670 5.2 -29.3°
Reaches altitude 10° 20:19:08 10° 298° (WNW) 1,779 3.8 -30.0°
Enters shadow 20:19:45 12° 306° (NW) 1,658 3.6 -30.1°
